Regional Weather Roundup
Issued by NWS Newport/Morehead, NC

Current Version | Previous Version | Text Only | Print | Product List | Glossary Off
Versions: 1 2 3 4 5 6 7 8 9 10 11 12 13 14 15 16 17 18 19 20 21 22 23 24 25 26 27 28 29 30 31 32 33 34 35 36 37 38 39 40 41 42 43 44 45 46 47 48 49 50
000 ASUS42 KMHX 300010 RWRMHX WEATHER ROUNDUP FOR EASTERN NORTH CAROLINA NATIONAL WEATHER SERVICE NEWPORT/MOREHEAD CITY NC 700 PM EST THU JAN 29 2015 NOTE: "FAIR" INDICATES FEW OR NO CLOUDS BELOW 12,000 FEET WITH NO SIGNIFICANT WEATHER AND/OR OBSTRUCTIONS TO VISIBILITY NCZ015>017-031-032-045>047-102-103-300100- NORTH COAST CITY SKY/WX TMP DP RH WIND PRES REMARKS EDENTON CLOUDY 41 26 55 S12 30.14F ELIZABETH CITY CLOUDY 38 27 64 SE6 30.14F KITTY HAWK CLOUDY 39 29 68 S5 30.16F MANTEO CLOUDY 39 28 65 S13 30.17F $$ NCZ045>047-081-094-103-104-300100- CENTRAL COAST CITY SKY/WX TMP DP RH WIND PRES REMARKS FRISCO CLOUDY 39 26 59 S8 30.19F SWANQUARTER N/A 41 N/A N/A S12G17 30.15 $$ NCZ095-097-098-100-101-300100- SOUTHERN COAST CITY SKY/WX TMP DP RH WIND PRES REMARKS BEAUFORT MOCLDY 44 32 62 S8 30.19F CEDAR ISLAND NOT AVBL JACKSONVILLE MOCLDY 43 29 57 S8 30.16F PINEY ISLAND N/A N/A N/A N/A MISG 30.19F WILMINGTON PTCLDY 45 31 58 S6 30.18F $$ NCZ011>013-027>030-043-044-078>080-089-090>093-098-300100- COASTAL PLAIN CITY SKY/WX TMP DP RH WIND PRES REMARKS AHOSKIE CLOUDY 40 20 43 S6 30.13F CLINTON CLOUDY 47 25 42 S7 30.15R ELIZABETHTOWN CLOUDY 47 28 47 SE5 30.15S GOLDSBORO CLOUDY 45 32 61 CALM 30.12S GREENVILLE CLOUDY 45 19 36 S8 30.14F HAVELOCK CLOUDY 42 24 49 S5 30.19F KENANSVILLE DRIZZLE 46 23 41 CALM 30.17S KINSTON LGT RAIN 45 25 45 S9 30.15F NEW BERN CLOUDY 44 20 38 S7 30.18F RICHLANDS MOCLDY 43 27 52 S6 30.16F ROCKY MOUNT PTCLDY 41 21 44 S5 30.12F WASHINGTON CLOUDY 43 24 46 S3 30.15F WHITEVILLE CLOUDY 47 30 52 S5 30.16F $$ AMZ130-135-150-152-154-156-158-170-250-252-270-ANZ085-086-088-633-658-670-300100- MARINE OBSERVATIONS STATION/POSITION TIME TEMP WIND PRES WAVE SWELL AIR SEA DIR/SP/G HT/PER HT/PER (UTC) (F) (DEG/KT/KT) (MB) (FT/S) (FT/S) CHESAPEAKE LIGHT 2300 39 180/ 16/ 18 1021.2 64 E VA BEACH 0000 41 49 210/ 12/ 16 1020.9 3/11 3/11 DUCK 0000 38 43 160/ 8/ 10 1020.6 2 E DUCK 0000 42 N/A 3/ 8 2/11 10 NE DUCK 0000 45 N/A 3/12 2/12 OREGON INLET 0000 40 42 190/ 11/ 13 1022.0 13E OREGON INLT 0000 43 N/A 4/11 2/11 HATTERAS CG 0000 40 44 180/ 5/ 7 1022.7 DIAMOND BUOY 0000 45 71 230/ 6/ 8 1023.0 5/10 5/10 17 S OCRACOKE NOT AVBL CAPE LOOKOUT 2300 43 200/ 4/ 5 1023.3 BEAUFORT LAB 0000 45 46 170/ 8/ 12 1021.4 27 SE WRIGHTSVLE NOT AVBL 5 SE WRIGHTSVLE 2300 49 52 200/ 10/ 14 1022.7 225 S CAPE HAT NOT AVBL 41 SE CHARLESTON 0000 60 68 190/ 14/ 16 1022.4 3/10 3/10 $$

USA.gov is the U.S. government's official web portal to all federal, state and local government web resources and services.